When you browse on this site, cookies collect data to enhance your experience and personalize the content and advertising you see.
Visit our Privacy Policy to learn more. By continuing to use the site, you agree to this use of cookies and data.
  • en France
  • Liste des pays
  • À 7 jours
  • Température de l'eau
  • Carte météo
  • Widgets météo
  • user-avatar
    Se connecter

    Météo par heure à Bafatá

    Ce jour, 27 Mai, Mercredi

    Heure Température Précipitation Vent Pression Humidité
    00:00 +27°C° 0 mm 2 m/s 757 mmHg 71%
    01:00 +27°C° 0 mm 2 m/s 756 mmHg 72%
    02:00 +27°C° 0 mm 2 m/s 756 mmHg 73%
    03:00 +26°C° 0 mm 2 m/s 757 mmHg 75%
    04:00 +26°C° 0 mm 2 m/s 757 mmHg 78%
    05:00 +26°C° 0 mm 2 m/s 757 mmHg 80%
    06:00 +27°C° 0 mm 2 m/s 757 mmHg 73%
    07:00 +29°C° 0 mm 2 m/s 758 mmHg 66%
    08:00 +30°C° 0 mm 2 m/s 758 mmHg 59%
    09:00 +34°C° 0 mm 2 m/s 758 mmHg 49%
    10:00 +37°C° 0 mm 2 m/s 758 mmHg 39%
    11:00 +40°C° 0 mm 2 m/s 757 mmHg 29%
    12:00 +41°C° 0 mm 2 m/s 757 mmHg 27%
    13:00 +42°C° 0 mm 2 m/s 756 mmHg 24%
    14:00 +42°C° 0 mm 2 m/s 755 mmHg 22%
    15:00 +43°C° 0 mm 3 m/s 755 mmHg 24%
    16:00 +42°C° 0 mm 3 m/s 755 mmHg 26%
    17:00 +40°C° 0 mm 3 m/s 754 mmHg 27%
    18:00 +37°C° 0 mm 3 m/s 755 mmHg 33%
    19:00 +35°C° 0 mm 3 m/s 756 mmHg 40%
    20:00 +33°C° 0 mm 3 m/s 756 mmHg 46%
    21:00 +31°C° 0 mm 3 m/s 757 mmHg 52%
    22:00 +29°C° 0 mm 3 m/s 757 mmHg 57%
    23:00 +28°C° 0 mm 2 m/s 757 mmHg 63%

    Demain, 28 Mai, Jeudi

    Heure Température Précipitation Vent Pression Humidité
    00:00 +28°C° 0 mm 2 m/s 757 mmHg 67%
    01:00 +28°C° 0 mm 2 m/s 757 mmHg 70%
    02:00 +27°C° 0 mm 1 m/s 757 mmHg 74%
    03:00 +27°C° 0 mm 1 m/s 757 mmHg 76%
    04:00 +27°C° 0 mm 1 m/s 757 mmHg 78%
    05:00 +26°C° 0 mm 1 m/s 757 mmHg 80%
    06:00 +28°C° 0 mm 2 m/s 757 mmHg 75%
    07:00 +29°C° 0 mm 2 m/s 758 mmHg 69%
    08:00 +30°C° 0 mm 2 m/s 758 mmHg 64%
    09:00 +34°C° 0 mm 2 m/s 758 mmHg 57%
    10:00 +36°C° 0 mm 3 m/s 757 mmHg 50%
    11:00 +38°C° 0 mm 3 m/s 757 mmHg 43%
    12:00 +39°C° 0 mm 3 m/s 756 mmHg 38%
    13:00 +40°C° 0 mm 3 m/s 755 mmHg 34%
    14:00 +42°C° 0 mm 2 m/s 755 mmHg 30%
    15:00 +41°C° 0 mm 2 m/s 754 mmHg 30%
    16:00 +41°C° 0 mm 2 m/s 754 mmHg 30%
    17:00 +40°C° 0 mm 2 m/s 754 mmHg 31%
    18:00 +38°C° 0 mm 3 m/s 755 mmHg 41%
    19:00 +35°C° 0 mm 4 m/s 755 mmHg 52%
    20:00 +32°C° 0 mm 4 m/s 756 mmHg 62%
    21:00 +30°C° 0 mm 4 m/s 757 mmHg 66%
    22:00 +29°C° 0 mm 3 m/s 757 mmHg 70%
    23:00 +29°C° 0 mm 3 m/s 757 mmHg 73%

    Après-demain, 29 Mai, Vendredi

    Heure Température Précipitation Vent Pression Humidité
    00:00 +28°C° 0 mm 3 m/s 757 mmHg 75%
    01:00 +28°C° 0 mm 2 m/s 756 mmHg 77%
    02:00 +28°C° 0 mm 2 m/s 756 mmHg 79%
    03:00 +27°C° 0 mm 2 m/s 756 mmHg 81%
    04:00 +27°C° 0 mm 1 m/s 756 mmHg 82%
    05:00 +24°C° 0 mm 0 m/s 756 mmHg 84%
    06:00 +28°C° 0 mm 1 m/s 757 mmHg 76%
    07:00 +30°C° 0 mm 1 m/s 757 mmHg 68%
    08:00 +31°C° 0 mm 1 m/s 757 mmHg 60%
    09:00 +34°C° 0 mm 1 m/s 757 mmHg 50%
    10:00 +37°C° 0 mm 1 m/s 756 mmHg 41%
    11:00 +41°C° 0 mm 2 m/s 756 mmHg 31%
    12:00 +43°C° 0 mm 1 m/s 755 mmHg 28%
    13:00 +45°C° 0 mm 1 m/s 754 mmHg 25%
    14:00 +44°C° 0 mm 0 m/s 753 mmHg 21%
    15:00 +45°C° 0 mm 1 m/s 753 mmHg 23%
    16:00 +43°C° 0 mm 1 m/s 753 mmHg 25%
    17:00 +42°C° 0 mm 2 m/s 753 mmHg 27%
    18:00 +38°C° 0 mm 3 m/s 753 mmHg 36%
    19:00 +35°C° 0 mm 4 m/s 754 mmHg 44%
    20:00 +32°C° 0 mm 4 m/s 755 mmHg 53%
    21:00 +30°C° 0 mm 4 m/s 755 mmHg 55%
    22:00 +29°C° 0 mm 3 m/s 756 mmHg 58%
    23:00 +29°C° 0 mm 2 m/s 756 mmHg 60%

    30 Mai, Samedi

    Heure Température Précipitation Vent Pression Humidité
    00:00 +28°C° 0 mm 2 m/s 756 mmHg 64%
    01:00 +27°C° 0 mm 2 m/s 755 mmHg 67%
    02:00 +27°C° 0 mm 1 m/s 755 mmHg 70%
    03:00 +27°C° 0 mm 1 m/s 755 mmHg 71%
    04:00 +26°C° 0 mm 1 m/s 755 mmHg 72%
    05:00 +26°C° 0 mm 1 m/s 756 mmHg 73%
    06:00 +28°C° 0 mm 1 m/s 756 mmHg 66%
    07:00 +29°C° 0 mm 1 m/s 756 mmHg 59%
    08:00 +31°C° 0 mm 2 m/s 756 mmHg 52%
    09:00 +35°C° 0 mm 2 m/s 756 mmHg 46%
    10:00 +38°C° 0 mm 2 m/s 756 mmHg 39%
    11:00 +41°C° 0 mm 2 m/s 756 mmHg 33%
    12:00 +42°C° 0 mm 1 m/s 755 mmHg 29%
    13:00 +43°C° 0 mm 1 m/s 754 mmHg 26%
    14:00 +45°C° 0 mm 1 m/s 753 mmHg 22%
    15:00 +43°C° 0 mm 2 m/s 753 mmHg 27%
    16:00 +42°C° 0 mm 4 m/s 753 mmHg 32%
    17:00 +40°C° 0 mm 5 m/s 753 mmHg 37%
    18:00 +36°C° 0.4 mm 5 m/s 754 mmHg 48%
    19:00 +33°C° 0.4 mm 4 m/s 755 mmHg 59%
    20:00 +30°C° 0.4 mm 4 m/s 756 mmHg 70%
    21:00 +29°C° 0.4 mm 4 m/s 756 mmHg 72%
    22:00 +29°C° 0.4 mm 3 m/s 757 mmHg 73%
    23:00 +28°C° 0.4 mm 3 m/s 758 mmHg 74%

    31 Mai, Dimanche

    Heure Température Précipitation Vent Pression Humidité
    00:00 +28°C° 0 mm 2 m/s 757 mmHg 74%
    01:00 +28°C° 0 mm 2 m/s 756 mmHg 75%
    02:00 +28°C° 0 mm 1 m/s 756 mmHg 75%
    03:00 +28°C° 0 mm 1 m/s 756 mmHg 75%
    04:00 +28°C° 0 mm 1 m/s 756 mmHg 75%
    05:00 +26°C° 0 mm 0 m/s 756 mmHg 75%
    06:00 +27°C° 0 mm 0 m/s 757 mmHg 70%
    07:00 +28°C° 0 mm 0 m/s 757 mmHg 65%
    08:00 +31°C° 0 mm 1 m/s 757 mmHg 60%
    09:00 +33°C° 0 mm 1 m/s 757 mmHg 54%
    10:00 +35°C° 0 mm 1 m/s 757 mmHg 48%
    11:00 +37°C° 0 mm 1 m/s 757 mmHg 42%
    12:00 +39°C° 0 mm 1 m/s 756 mmHg 38%
    13:00 +40°C° 0 mm 1 m/s 756 mmHg 35%
    14:00 +41°C° 0 mm 1 m/s 755 mmHg 31%
    15:00 +41°C° 0 mm 1 m/s 755 mmHg 31%
    16:00 +41°C° 0 mm 1 m/s 754 mmHg 31%
    17:00 +40°C° 0 mm 1 m/s 754 mmHg 31%
    18:00 +38°C° 0 mm 2 m/s 755 mmHg 39%
    19:00 +35°C° 0 mm 2 m/s 755 mmHg 47%
    20:00 +33°C° 0 mm 3 m/s 756 mmHg 55%
    21:00 +31°C° 0.3 mm 3 m/s 757 mmHg 59%
    22:00 +30°C° 0.3 mm 3 m/s 757 mmHg 62%
    23:00 +29°C° 0.3 mm 3 m/s 758 mmHg 66%

    1 Juin, Lundi

    Heure Température Précipitation Vent Pression Humidité
    00:00 +29°C° 0.7 mm 2 m/s 758 mmHg 71%
    01:00 +28°C° 0.7 mm 2 m/s 758 mmHg 76%
    02:00 +28°C° 0.7 mm 1 m/s 758 mmHg 81%
    03:00 +28°C° 0.1 mm 1 m/s 758 mmHg 81%
    04:00 +28°C° 0.1 mm 1 m/s 758 mmHg 81%
    05:00 +28°C° 0.1 mm 1 m/s 758 mmHg 81%
    06:00 +28°C° 0 mm 2 m/s 758 mmHg 77%
    07:00 +28°C° 0 mm 2 m/s 758 mmHg 74%
    08:00 +28°C° 0 mm 3 m/s 759 mmHg 71%
    09:00 +29°C° 0 mm 2 m/s 758 mmHg 67%
    10:00 +30°C° 0 mm 1 m/s 758 mmHg 64%
    11:00 +31°C° 0 mm 1 m/s 758 mmHg 60%
    12:00 +31°C° 0 mm 1 m/s 758 mmHg 58%
    13:00 +32°C° 0 mm 1 m/s 757 mmHg 55%
    14:00 +33°C° 0 mm 1 m/s 756 mmHg 53%
    15:00 +33°C° 0 mm 1 m/s 756 mmHg 53%
    16:00 +33°C° 0 mm 1 m/s 756 mmHg 53%
    17:00 +31°C° 0 mm 0 m/s 755 mmHg 52%
    18:00 +32°C° 0 mm 1 m/s 756 mmHg 55%
    19:00 +31°C° 0 mm 1 m/s 756 mmHg 57%
    20:00 +30°C° 0 mm 1 m/s 757 mmHg 60%
    21:00 +30°C° 0 mm 1 m/s 757 mmHg 57%
    22:00 +30°C° 0 mm 2 m/s 757 mmHg 55%
    23:00 +30°C° 0 mm 2 m/s 757 mmHg 52%
    Voir plus